Theta_e
325 323 323 323 323 323 323 324 324 326 327 327 328 327 327 325 323 318 309 314 319 330 326 313 312 312 312 312 312 311 304 300 299 300 302 305 303 307 307 304 306 306 306 308 310
322 322 322 321 322 322 322 323 324 325 326 327 327 327 325 324 315 311 319 328 329 328 311 310 309 310 310 308 310 307 303 301 304 304 303 305 303 303 303 304 303 304 308 308 305
322 321 321 320 321 321 322 323 323 325 326 326 327 327 324 322 311 309 323 325 326 319 311 310 310 310 307 308 306 306 301 303 303 304 305 303 303 303 302 300 301 301 304 302 301
321 320 319 319 320 320 321 322 324 325 325 326 327 327 322 317 302 311 321 323 321 312 310 310 310 306 305 303 305 301 303 303 303 304 302 301 303 301 302 301 303 304 302 300 299
320 319 318 318 318 319 320 322 323 324 324 326 327 325 319 310 308 312 321 317 312 310 308 308 306 305 302 303 304 302 302 302 302 302 302 302 301 300 301 303 304 302 299 298 298
319 317 317 317 317 318 320 322 323 324 324 326 327 321 314 306 312 312 311 310 309 309 309 309 306 306 304 303 301 303 302 302 301 301 301 300 300 300 302 301 300 297 297 297 297
318 316 316 316 316 317 320 321 323 323 324 325 322 316 313 308 311 317 310 307 307 307 307 306 306 305 305 303 303 301 298 301 300 300 299 301 298 298 302 299 298 296 296 296 296
317 316 315 315 315 317 320 321 322 323 323 322 321 317 308 314 315 314 312 309 308 307 306 305 306 305 303 304 301 299 299 296 299 299 299 299 293 300 300 298 296 294 294 294 295
317 315 315 315 315 317 319 320 321 322 321 320 317 314 306 312 312 313 311 305 306 307 306 303 305 303 303 300 299 299 294 295 295 299 297 297 294 300 297 296 292 292 292 292 293
316 315 315 314 314 317 319 321 322 318 314 312 312 309 308 307 311 310 309 306 306 306 306 305 304 300 302 297 290 291 291 294 293 296 297 296 295 297 294 292 290 290 290 291 291
315 315 314 313 315 318 319 315 313 312 310 305 305 305 306 311 310 307 306 306 306 304 302 303 297 296 298 296 295 294 293 292 295 297 294 292 292 293 290 290 289 288 289 289 289
315 314 312 311 315 318 316 308 306 307 301 306 307 308 310 308 302 305 307 302 302 300 303 300 297 297 296 296 295 294 292 291 294 296 293 291 290 291 288 287 288 287 288 288 289
314 313 311 312 315 316 310 307 311 312 302 304 306 307 307 304 301 301 303 301 299 299 299 295 298 295 295 295 293 293 290 290 289 292 293 291 288 288 287 287 288 288 289 289 288
313 312 309 312 310 313 310 310 312 312 299 301 302 305 302 302 298 303 301 299 300 296 295 293 295 294 294 293 292 288 291 289 289 287 283 290 280 288 286 286 286 287 287 287 287
313 310 309 311 308 308 309 311 310 307 292 299 302 305 302 299 299 300 301 299 295 296 292 293 291 291 290 291 292 290 289 288 289 287 286 286 283 288 289 287 284 285 286 286 287
312 309 309 309 312 309 308 308 306 297 291 298 302 300 299 298 298 300 299 300 298 293 293 292 295 294 294 293 291 289 289 289 289 287 280 285 282 284 286 284 283 285 285 285 286
311 308 309 310 305 308 310 306 298 292 300 297 297 298 296 298 297 296 295 294 292 290 291 292 292 293 291 289 292 289 286 280 281 282 281 283 279 283 283 283 283 283 284 285 286
309 308 309 310 312 310 311 301 291 298 300 297 297 295 295 296 296 293 292 292 293 291 288 286 285 290 291 289 286 285 284 279 273 276 279 281 276 282 285 285 285 285 284 285 285
308 313 310 311 312 312 300 294 294 298 301 296 296 295 296 293 291 291 292 293 293 293 287 286 284 288 285 287 287 286 282 285 279 279 274 279 282 284 285 284 284 283 283 283 284
311 307 309 312 312 308 295 294 298 301 298 297 294 297 293 296 291 292 292 293 289 291 291 288 282 287 284 285 284 283 286 277 278 270 271 278 278 279 280 280 282 281 282 282 284
305 301 308 312 313 300 292 295 298 302 300 297 296 295 296 293 294 293 293 293 292 287 288 287 284 282 283 281 282 280 278 278 278 277 271 271 276 282 280 281 280 281 282 282 284
303 298 308 312 297 298 294 298 299 297 298 298 296 296 295 295 294 292 292 294 292 288 283 285 283 279 281 282 282 280 280 280 274 274 274 273 272 284 283 283 282 281 281 283 284
297 299 308 307 293 295 297 295 296 296 296 295 294 295 297 293 289 292 293 286 290 286 284 283 280 276 277 278 279 277 279 280 279 276 273 270 273 283 283 284 282 280 281 283 282
299 296 299 300 300 298 297 296 294 298 296 297 296 298 294 289 293 291 288 283 286 286 284 286 281 279 278 281 278 275 277 278 277 273 273 273 275 279 281 280 280 280 281 282 281
299 295 300 293 293 296 299 297 296 296 298 297 294 294 292 288 290 287 288 281 282 283 283 282 277 279 280 281 279 277 276 276 274 276 273 275 275 278 280 280 279 281 281 280 280
302 298 295 296 301 295 296 295 295 296 298 294 292 295 291 289 290 291 286 285 281 282 281 282 276 277 273 277 277 274 276 277 276 276 276 276 274 281 282 280 280 280 280 279 280
309 299 299 300 297 296 295 295 297 299 299 300 298 294 291 290 290 288 289 287 287 282 280 279 277 274 272 275 273 271 275 276 277 278 276 272 277 281 278 278 279 279 279 279 278
Wind_Speed
19 20 20 19 19 18 17 16 16 16 15 15 14 12 10 9 6 2 10 7 9 15 13 7 5 2 3 1 1 3 5 1 3 3 4 3 7 7 1 4 9 6 13 17 17
19 21 21 21 20 18 17 17 15 16 16 13 12 11 10 9 2 13 3 8 10 9 7 7 4 5 3 1 2 4 4 4 5 6 7 9 7 8 5 12 14 14 16 19 17
20 21 22 23 22 20 18 17 15 15 16 12 11 9 9 6 3 5 9 12 11 8 5 6 6 5 4 1 2 2 4 3 3 5 9 8 4 3 6 12 11 14 16 16 17
19 21 22 23 23 22 21 17 15 15 15 12 11 9 7 5 2 5 11 10 8 6 5 6 4 5 5 4 3 5 5 1 1 4 7 7 6 4 12 10 15 15 15 15 17
18 20 21 22 23 23 22 19 15 14 14 10 9 7 4 3 5 7 11 8 5 3 5 7 5 5 4 4 5 3 6 1 3 8 6 6 6 4 11 14 17 16 15 15 16
16 18 20 22 23 23 23 21 16 15 13 9 7 5 3 2 2 6 9 4 9 6 5 6 6 4 4 3 4 2 6 5 1 2 3 8 2 4 4 15 19 14 14 14 16
16 17 19 21 23 24 24 22 16 15 10 6 6 4 5 5 2 5 6 3 4 5 3 3 3 5 4 4 3 4 5 10 6 2 1 11 7 5 6 13 13 11 12 12 16
14 17 19 21 22 24 25 24 17 10 6 5 7 4 4 2 3 5 9 2 2 2 2 2 1 4 3 2 6 3 2 3 7 3 3 10 11 7 14 11 11 7 8 9 13
14 16 19 20 22 24 26 27 16 5 2 4 3 4 4 2 2 5 5 6 5 1 0 2 2 3 4 7 10 10 5 9 5 5 2 5 13 7 12 12 10 6 10 12 14
13 16 18 20 22 23 26 21 5 5 3 1 0 2 3 1 4 6 4 6 4 7 5 4 4 6 8 8 9 12 12 8 12 3 9 9 14 15 13 14 8 8 10 12 13
13 15 18 20 21 21 14 7 6 3 8 3 10 5 2 5 1 2 4 6 4 7 10 4 7 10 4 6 10 10 11 13 14 7 7 12 15 6 13 9 6 7 9 12 15
12 15 17 19 21 18 7 5 4 3 10 3 3 4 2 1 2 3 8 5 5 14 10 12 13 4 7 6 7 12 16 14 7 3 11 15 16 18 14 7 5 5 9 13 15
11 14 16 18 16 5 6 3 3 2 6 2 2 2 2 2 1 2 7 3 6 12 11 10 12 3 5 8 13 13 15 9 10 13 17 14 18 16 14 10 5 4 8 12 17
10 12 15 20 4 2 2 3 2 3 6 5 4 4 3 0 2 3 4 3 4 10 7 10 4 5 8 12 4 12 5 9 14 14 11 17 10 14 19 14 4 5 11 16 21
8 10 13 11 5 3 4 1 2 4 7 2 4 2 1 4 2 4 1 3 9 15 2 3 5 8 11 7 3 6 9 10 16 19 22 13 8 10 19 15 3 7 13 18 21
5 8 11 2 1 4 0 3 3 6 9 3 2 2 3 4 2 2 2 2 2 6 8 15 0 3 5 2 3 9 10 17 20 12 7 2 3 7 4 1 3 9 16 22 22
4 4 5 2 2 4 4 3 6 7 3 5 2 1 1 4 4 2 2 6 6 7 7 6 9 2 3 6 7 8 9 8 4 5 9 10 8 11 11 5 5 12 19 20 19
3 2 2 2 4 6 3 5 9 8 8 3 2 1 5 5 3 2 4 10 9 7 8 8 9 8 3 3 5 1 3 4 8 7 14 14 10 5 13 8 2 13 19 19 21
3 3 3 4 5 4 5 9 7 3 2 4 4 7 10 2 4 4 10 14 3 11 9 5 7 4 3 1 2 7 6 5 6 3 6 9 11 7 11 4 7 17 19 19 21
3 2 4 9 7 4 7 17 13 2 4 3 7 6 13 11 5 6 4 6 5 7 1 1 10 5 5 1 1 4 6 3 4 6 8 8 19 12 7 8 13 20 20 20 23
1 4 5 6 6 6 12 13 16 13 9 9 12 16 13 13 14 15 10 7 9 9 6 1 5 4 3 10 12 6 6 6 5 4 5 10 6 6 4 5 16 19 19 22 23
3 5 6 6 8 6 14 11 8 10 11 10 5 15 20 17 18 14 14 9 11 12 10 6 4 10 13 3 6 8 11 14 7 8 9 9 17 13 4 4 13 18 20 22 22
3 3 4 5 10 14 12 14 10 13 11 10 12 9 9 16 11 16 14 5 10 12 13 9 7 4 5 4 4 6 11 18 16 5 15 11 11 8 11 19 18 19 20 20 22
4 6 4 4 8 16 19 23 23 12 19 19 16 15 11 10 15 12 8 4 6 9 5 7 7 13 13 13 2 7 14 17 17 13 16 22 30 20 21 17 20 20 20 21 22
6 7 7 8 9 20 22 16 19 22 14 7 10 23 16 13 16 18 16 8 4 5 5 5 10 14 19 19 16 16 16 18 23 24 23 26 22 21 19 19 17 20 21 23 23
9 7 3 6 14 20 22 21 31 27 21 17 22 14 18 29 25 20 8 6 7 13 13 6 6 5 6 13 15 20 19 22 24 24 26 25 30 21 18 12 17 20 22 22 21
8 2 5 13 15 17 20 28 30 21 24 28 26 19 21 23 7 5 8 6 8 13 16 9 6 5 9 4 9 16 22 26 26 21 19 21 24 18 14 13 16 20 19 19 22
Wind_Direction
357 347 349 351 347 346 343 343 340 329 333 335 335 328 328 321 284 158 47 335 310 316 311 281 269 328 240 129 350 305 245 279 55 307 1 102 334 8 25 290 50 37 29 9 11
352 346 347 346 345 341 342 342 338 328 331 333 331 325 325 319 65 65 6 313 314 324 314 339 345 318 230 207 173 277 284 62 23 330 318 336 354 341 336 52 23 9 11 31 29
349 344 345 343 341 340 345 342 337 327 322 329 325 320 316 279 226 30 16 338 331 309 289 310 295 292 268 267 53 38 347 43 55 321 326 329 341 331 331 62 22 356 9 36 32
345 342 343 340 337 340 340 343 337 321 318 328 322 319 335 237 18 24 356 335 317 319 295 311 287 307 294 309 55 290 69 352 245 303 321 341 317 45 62 67 10 38 52 42 37
344 339 337 337 337 336 333 336 337 317 316 329 317 317 270 97 59 6 338 344 337 356 20 359 345 335 315 328 310 240 100 53 304 301 312 331 360 68 74 19 52 71 54 42 38
343 338 335 333 336 332 327 330 334 320 319 330 309 291 244 160 344 356 346 358 13 359 13 5 354 338 263 271 265 15 303 276 94 323 292 350 333 202 76 16 80 72 57 42 33
341 336 332 331 335 329 323 322 328 323 318 330 303 277 75 90 356 357 12 32 358 0 337 40 352 278 353 281 61 306 294 113 152 208 293 316 191 165 6 33 88 57 44 39 29
336 334 329 333 332 326 320 315 327 321 308 318 307 270 72 45 348 358 351 270 12 37 30 3 313 285 263 331 187 214 230 4 130 235 161 322 304 104 34 81 106 69 47 28 25
334 330 329 333 330 326 319 311 315 294 266 291 265 323 138 149 300 343 353 321 307 270 190 241 235 291 206 280 296 204 336 315 298 210 210 317 297 319 69 113 117 69 35 16 8
331 324 331 333 331 325 319 298 248 201 229 125 157 215 150 69 329 329 336 306 309 307 251 257 251 270 230 347 319 305 303 301 290 50 314 276 278 315 94 123 111 57 27 17 13
323 327 333 333 331 325 333 323 336 214 38 345 316 281 357 333 242 339 0 314 284 256 329 346 295 299 334 328 304 300 289 292 289 111 304 304 300 342 122 137 120 51 25 18 17
317 326 332 333 326 313 309 42 44 355 309 182 242 268 253 320 245 28 337 300 316 317 318 295 289 23 312 301 292 292 291 297 314 187 309 307 297 132 156 138 117 38 22 14 1
313 325 330 330 320 318 47 56 345 272 265 189 206 266 115 244 19 14 345 332 307 306 318 284 294 327 287 295 295 287 302 319 299 305 280 285 281 154 172 152 138 50 5 3 357
303 324 332 325 289 13 57 26 266 259 270 156 178 146 166 123 212 46 34 334 283 303 321 283 8 302 285 278 301 296 14 316 304 309 302 319 290 168 180 177 129 25 9 357 352
299 325 335 353 337 298 46 275 169 241 289 103 142 96 113 237 54 151 114 199 274 294 240 300 296 290 281 304 331 301 342 303 289 284 299 275 242 257 165 199 100 12 3 358 355
281 321 327 238 280 55 22 150 235 241 244 156 136 163 222 188 178 12 247 180 303 273 241 269 47 257 294 265 268 304 285 298 274 267 260 127 272 234 175 161 1 359 359 355 350
247 328 317 290 11 122 179 229 263 236 108 166 185 208 316 289 293 325 276 237 262 281 241 190 214 165 249 258 208 260 307 311 296 227 276 151 314 249 140 127 37 357 357 349 344
215 261 138 296 141 162 216 233 247 261 247 87 135 160 247 354 198 218 237 270 208 245 282 274 263 185 137 275 344 330 294 266 288 296 296 315 253 294 132 140 30 356 356 347 339
164 212 243 169 163 198 224 225 255 272 54 174 196 257 274 191 264 254 233 255 271 202 221 251 246 124 31 344 288 136 215 14 291 259 276 235 237 140 158 212 357 344 350 343 333
243 252 234 140 170 212 223 233 243 142 147 217 252 239 269 280 218 222 254 165 202 212 195 27 284 171 114 225 149 270 120 177 198 269 268 266 300 272 186 344 341 346 340 335 329
195 244 101 156 191 216 224 226 244 237 195 221 249 257 260 273 262 272 258 179 186 170 196 158 239 139 151 208 225 182 214 222 290 242 264 301 279 112 12 0 345 333 336 332 329
157 233 135 185 196 215 227 240 230 224 218 249 285 263 265 265 274 243 252 240 159 158 172 186 250 253 245 49 288 276 246 214 217 211 226 268 275 281 218 358 344 334 332 331 329
204 227 143 243 223 228 238 250 256 231 213 207 231 224 249 254 262 236 257 46 177 181 177 172 205 249 232 238 178 216 221 235 235 312 243 251 255 154 211 330 341 330 326 325 328
161 225 174 210 279 254 245 241 239 208 253 240 251 245 229 242 235 263 217 179 206 219 74 189 228 230 256 298 98 213 214 216 212 239 259 239 271 274 292 315 325 320 322 322 320
184 221 196 197 219 237 240 252 250 243 218 228 247 230 225 247 232 239 239 130 194 205 200 221 252 241 262 274 279 259 255 222 221 236 243 270 263 279 299 316 321 314 319 323 317
210 196 183 268 228 211 222 229 240 239 238 221 235 222 218 234 222 263 200 152 185 196 200 203 250 295 275 267 274 271 256 247 246 242 246 258 271 276 284 318 309 316 318 314 323
212 101 195 226 219 233 215 230 242 240 242 244 246 241 237 239 261 84 118 176 214 187 203 197 202 195 263 14 318 277 243 236 240 231 234 245 257 279 291 310 312 312 309 315 323